Tracking 23732 objects as of 28-Sep-2021
HD Live streaming from Space Station
objects crossing your sky now

DMSP 5D-2 F13 DEB

Track DMSP 5D-2 F13 DEB now!
10-day predictions


NORAD ID: 40470
Int'l Code: 1995-015BN
Perigee: 836.8 km
Apogee: 915.8 km
Inclination: 98.9 °
Period: 102.3 minutes
Semi major axis: 7247 km
RCS: Unknown
Launch date: March 24, 1995
Source: United States (US)
Launch site: AIR FORCE WESTERN TEST RANGE (AFWTR)

Note: This is SATELLITE DEBRIS
aabbcc
Your satellite tracking list
Your tracking list is empty




NASA's NSSDC Master Catalog

Two Line Element Set (TLE):
1 40470U 95015BN  21269.19833273  .00001006  00000-0  61902-3 0  9999
2 40470  98.9015 241.5440 0054503 293.1555  66.3877 14.07155699336147
Source of the keplerian elements: AFSPC